User: anonymous   Login
Location: Ste-F�licit�
(48.8999°N, 67.3360°W)
Time: 22:01:28
(UTC-04:00)
Language:

DELFI C3 - Orbit

View from above orbital plane
View from above orbital plane
View from above satellite
View from above satellite

Ground track
Ground track

The orbit data is extracted from the following two-line orbital elements,

1 32789U 08021G   20296.28264852 +.00001434 +00000-0 +96984-4 0  9998
2 32789 097.4061 334.5861 0010660 236.2820 123.7393 15.08020459681023
Epoch (UTC): 22 October 2020 06:47:00
Eccentricity: 0.0010660
inclination: 97.4061°
perigee height: 535 km
apogee height: 549 km
right ascension of ascending node: 334.5861°
argument of perigee: 236.2820°
revolutions per day: 15.08020459
mean anomaly at epoch: 123.7393°
orbit number at epoch: 68102

The dashed part of the orbit path shows where the satellite is in the earth's shadow,  

DLR